| time (UTC) | temp F | wind direction | speed MPH | gust MPH | rain 1hr in | rain 24hr in | rain mn in | humidity % | barometer mb |
| 20260905185248 | 74 | 351 | 0.0 | 1.0 | 0.00 | 0.00 | 0.00 | 85 | 1013.3 |
| 20260905184742 | 75 | 10 | 1.0 | 1.0 | 0.00 | 0.00 | 0.00 | 86 | 1013.6 |
| 20260905184241 | 74 | 351 | 0.0 | 1.0 | 0.00 | 0.00 | 0.00 | 87 | 1013.6 |
| 20260905183735 | 74 | 313 | 0.0 | 2.0 | 0.00 | 0.00 | 0.00 | 87 | 1013.6 |
| 20260905183231 | 74 | 352 | 2.0 | 3.0 | 0.00 | 0.00 | 0.00 | 86 | 1013.5 |
| 20260905182725 | 75 | 3 | 2.0 | 3.0 | 0.00 | 0.00 | 0.00 | 85 | 1013.7 |
| 20260905182224 | 75 | 356 | 2.0 | 5.0 | 0.00 | 0.00 | 0.00 | 85 | 1013.7 |
| 20260905181714 | 75 | 358 | 2.0 | 2.0 | 0.00 | 0.00 | 0.00 | 84 | 1013.5 |
| 20260905181213 | 73 | 23 | 2.0 | 2.0 | 0.00 | 0.00 | 0.00 | 86 | 1013.6 |
| 20260905180708 | 73 | 352 | 1.0 | 2.0 | 0.00 | 0.00 | 0.00 | 88 | 1013.6 |
| 20260905180203 | 74 | 15 | 2.0 | 4.0 | 0.00 | 0.00 | 0.00 | 88 | 1013.8 |
| 20260905175703 | 74 | 2 | 1.0 | 3.0 | 0.00 | 0.00 | 0.00 | 86 | 1013.8 |
| 20260905175158 | 75 | 18 | 3.0 | 4.0 | 0.00 | 0.00 | 0.00 | 85 | 1014.0 |
| 20260905174653 | 75 | 22 | 2.0 | 3.0 | 0.00 | 0.00 | 0.00 | 86 | 1013.8 |
| 20260905174149 | 73 | 316 | 1.0 | 2.0 | 0.00 | 0.00 | 0.00 | 88 | 1013.7 |
| 20260905173644 | 73 | 349 | 2.0 | 5.0 | 0.00 | 0.00 | 0.00 | 90 | 1013.7 |
| 20260905173140 | 73 | 351 | 2.0 | 3.0 | 0.00 | 0.00 | 0.00 | 89 | 1013.8 |
| 20260905172639 | 74 | 359 | 2.0 | 4.0 | 0.00 | 0.00 | 0.00 | 89 | 1013.6 |
| 20260905172134 | 74 | 32 | 2.0 | 3.0 | 0.00 | 0.00 | 0.00 | 88 | 1013.8 |
| 20260905171630 | 75 | 343 | 2.0 | 7.0 | 0.00 | 0.00 | 0.00 | 86 | 1013.9 |
| 20260905171125 | 74 | 3 | 2.0 | 4.0 | 0.00 | 0.00 | 0.00 | 86 | 1013.8 |
| 20260905170621 | 73 | 351 | 2.0 | 3.0 | 0.00 | 0.00 | 0.00 | 88 | 1013.9 |
| 20260905170117 | 73 | 335 | 3.0 | 5.0 | 0.00 | 0.00 | 0.00 | 88 | 1013.9 |
| 20260905165612 | 73 | 345 | 2.0 | 3.0 | 0.00 | 0.00 | 0.00 | 88 | 1014.2 |
| 20260905165107 | 74 | 4 | 2.0 | 2.0 | 0.00 | 0.00 | 0.00 | 88 | 1014.4 |
| 20260905164601 | 74 | 0 | 2.0 | 4.0 | 0.00 | 0.00 | 0.00 | 88 | 1014.3 |
| 20260905164055 | 73 | 8 | 1.0 | 2.0 | 0.00 | 0.00 | 0.00 | 90 | 1014.2 |
| 20260905163552 | 73 | 2 | 1.0 | 2.0 | 0.00 | 0.00 | 0.00 | 90 | 1014.2 |
| 20260905163048 | 73 | 358 | 2.0 | 5.0 | 0.00 | 0.00 | 0.00 | 90 | 1014.5 |
| 20260905162544 | 73 | 0 | 1.0 | 3.0 | 0.00 | 0.00 | 0.00 | 90 | 1014.5 |
| 20260905162038 | 73 | 25 | 0.0 | 2.0 | 0.00 | 0.00 | 0.00 | 90 | 1014.5 |
| 20260905161537 | 73 | 353 | 1.0 | 2.0 | 0.00 | 0.00 | 0.00 | 90 | 1014.4 |
| 20260905161036 | 73 | 339 | 1.0 | 1.0 | 0.00 | 0.00 | 0.00 | 90 | 1014.5 |
| 20260905160534 | 73 | 357 | 1.0 | 2.0 | 0.00 | 0.00 | 0.00 | 90 | 1014.5 |
| 20260905160029 | 73 | 359 | 2.0 | 3.0 | 0.00 | 0.00 | 0.00 | 89 | 1014.8 |
| 20260905155529 | 73 | 2 | 2.0 | 2.0 | 0.00 | 0.00 | 0.00 | 89 | 1014.8 |
| 20260905155027 | 73 | 7 | 1.0 | 3.0 | 0.00 | 0.00 | 0.00 | 88 | 1014.6 |
| 20260905154523 | 73 | 355 | 2.0 | 3.0 | 0.00 | 0.00 | 0.00 | 89 | 1014.6 |
| 20260905154018 | 73 | 357 | 2.0 | 2.0 | 0.00 | 0.00 | 0.00 | 88 | 1014.5 |
| 20260905153514 | 74 | 335 | 2.0 | 3.0 | 0.00 | 0.00 | 0.00 | 88 | 1014.4 |
| 20260905153013 | 74 | 331 | 1.0 | 3.0 | 0.00 | 0.00 | 0.00 | 87 | 1014.5 |
| 20260905152508 | 74 | 16 | 1.0 | 2.0 | 0.00 | 0.00 | 0.00 | 89 | 1014.3 |
| 20260905152003 | 73 | 329 | 0.0 | 1.0 | 0.00 | 0.00 | 0.00 | 88 | 1014.4 |
| 20260905151458 | 74 | 2 | 1.0 | 1.0 | 0.00 | 0.00 | 0.00 | 88 | 1014.4 |
| 20260905150953 | 74 | 333 | 0.0 | 2.0 | 0.00 | 0.00 | 0.00 | 87 | 1014.3 |
| 20260905150448 | 74 | 252 | 3.0 | 3.0 | 0.00 | 0.00 | 0.00 | 86 | 1014.2 |
| 20260905145944 | 73 | 150 | 0.0 | 3.0 | 0.00 | 0.00 | 0.00 | 88 | 1014.3 |
| 20260905145439 | 73 | 29 | 0.0 | 1.0 | 0.00 | 0.00 | 0.00 | 89 | 1014.3 |
| 20260905144939 | 73 | 22 | 0.0 | 2.0 | 0.00 | 0.00 | 0.00 | 90 | 1013.9 |
| 20260905144434 | 73 | 78 | 1.0 | 2.0 | 0.00 | 0.00 | 0.00 | 91 | 1014.2 |
| 20260905143933 | 72 | 38 | 0.0 | 1.0 | 0.00 | 0.00 | 0.00 | 91 | 1014.2 |
| 20260905143426 | 72 | 76 | 1.0 | 2.0 | 0.00 | 0.00 | 0.00 | 92 | 1013.9 |
| 20260905142921 | 72 | 322 | 0.0 | 1.0 | 0.00 | 0.00 | 0.00 | 95 | 1014.0 |
| 20260905142420 | 71 | 345 | 0.0 | 2.0 | 0.00 | 0.00 | 0.00 | 97 | 1013.7 |
| 20260905141916 | 70 | 37 | 0.0 | 2.0 | 0.00 | 0.00 | 0.00 | 99 | 1013.6 |
| 20260905141411 | 70 | 19 | 1.0 | 2.0 | 0.00 | 0.00 | 0.00 | 99 | 1013.8 |
| 20260905140907 | 69 | 326 | 0.0 | 1.0 | 0.00 | 0.00 | 0.00 | 99 | 1013.7 |
| 20260905140402 | 69 | 338 | 1.0 | 2.0 | 0.00 | 0.00 | 0.00 | 99 | 1013.8 |
| 20260905135900 | 69 | 340 | 0.0 | 2.0 | 0.00 | 0.00 | 0.00 | 99 | 1013.8 |
| 20260905135356 | 69 | 11 | 0.0 | 2.0 | 0.00 | 0.00 | 0.00 | 99 | 1013.7 |
| 20260905134852 | 68 | 22 | 1.0 | 2.0 | 0.00 | 0.00 | 0.00 | 99 | 1013.9 |
| 20260905134350 | 68 | 11 | 0.0 | 0.0 | 0.00 | 0.00 | 0.00 | 99 | 1014.0 |
| 20260905133844 | 68 | 29 | 0.0 | 2.0 | 0.00 | 0.00 | 0.00 | 99 | 1014.2 |
| 20260905133340 | 68 | 349 | 2.0 | 3.0 | 0.00 | 0.00 | 0.00 | 99 | 1014.4 |
| 20260905132839 | 68 | 5 | 2.0 | 3.0 | 0.00 | 0.00 | 0.00 | 99 | 1014.5 |
| 20260905132335 | 68 | 354 | 0.0 | 2.0 | 0.00 | 0.00 | 0.00 | 99 | 1014.4 |
| 20260905131829 | 67 | 22 | 1.0 | 2.0 | 0.00 | 0.00 | 0.00 | 99 | 1014.3 |
| 20260905131325 | 67 | 12 | 0.0 | 2.0 | 0.00 | 0.00 | 0.00 | 99 | 1014.6 |
| 20260905130820 | 67 | 25 | 0.0 | 2.0 | 0.00 | 0.00 | 0.00 | 99 | 1014.6 |
| 20260905130318 | 67 | 327 | 1.0 | 2.0 | 0.00 | 0.00 | 0.00 | 99 | 1014.6 |
| 20260905125814 | 67 | 27 | 0.0 | 1.0 | 0.00 | 0.00 | 0.00 | 99 | 1014.4 |
| 20260905125309 | 67 | 5 | 0.0 | 2.0 | 0.00 | 0.00 | 0.00 | 99 | 1014.3 |
| 20260905124805 | 67 | 40 | 1.0 | 2.0 | 0.00 | 0.00 | 0.00 | 99 | 1014.4 |
| 20260905124301 | 67 | 348 | 0.0 | 2.0 | 0.00 | 0.00 | 0.00 | 99 | 1014.3 |
| 20260905123756 | 67 | 336 | 0.0 | 2.0 | 0.00 | 0.00 | 0.00 | 99 | 1014.4 |
| 20260905123253 | 67 | 30 | 0.0 | 1.0 | 0.00 | 0.00 | 0.00 | 99 | 1014.4 |
| 20260905122752 | 67 | 301 | 0.0 | 2.0 | 0.00 | 0.00 | 0.00 | 99 | 1014.4 |
| 20260905122251 | 66 | 310 | 0.0 | 1.0 | 0.00 | 0.00 | 0.00 | 99 | 1014.5 |
| 20260905121747 | 66 | 37 | 0.0 | 2.0 | 0.00 | 0.00 | 0.00 | 99 | 1014.3 |
| 20260905121244 | 66 | 0 | 1.0 | 3.0 | 0.00 | 0.00 | 0.00 | 99 | 1014.2 |
| 20260905120742 | 66 | 37 | 0.0 | 2.0 | 0.00 | 0.00 | 0.00 | 99 | 1014.5 |
| 20260905120237 | 66 | 34 | 1.0 | 2.0 | 0.00 | 0.00 | 0.00 | 99 | 1014.2 |
| 20260905115731 | 66 | 13 | 0.0 | 2.0 | 0.00 | 0.00 | 0.00 | 99 | 1014.3 |
| 20260905115226 | 66 | 50 | 0.0 | 2.0 | 0.00 | 0.00 | 0.00 | 99 | 1014.4 |
| 20260905114720 | 66 | 282 | 0.0 | 3.0 | 0.00 | 0.00 | 0.00 | 99 | 1014.3 |
| 20260905114218 | 66 | 266 | 1.0 | 3.0 | 0.00 | 0.00 | 0.00 | 99 | 1014.2 |
| 20260905113713 | 66 | 9 | 0.0 | 3.0 | 0.00 | 0.00 | 0.00 | 99 | 1014.0 |
| 20260905113209 | 66 | 344 | 1.0 | 3.0 | 0.00 | 0.00 | 0.00 | 99 | 1013.9 |
| 20260905112708 | 66 | 353 | 3.0 | 3.0 | 0.00 | 0.00 | 0.00 | 99 | 1014.0 |
| 20260905112203 | 66 | 335 | 3.0 | 4.0 | 0.00 | 0.00 | 0.00 | 99 | 1014.2 |
| 20260905111658 | 66 | 4 | 2.0 | 3.0 | 0.00 | 0.00 | 0.00 | 99 | 1013.9 |
| 20260905111157 | 66 | 6 | 2.0 | 3.0 | 0.00 | 0.00 | 0.00 | 99 | 1013.8 |
| 20260905110656 | 66 | 4 | 2.0 | 3.0 | 0.00 | 0.00 | 0.00 | 99 | 1013.8 |
| 20260905110152 | 66 | 4 | 2.0 | 3.0 | 0.00 | 0.00 | 0.00 | 99 | 1013.9 |
| 20260905105647 | 66 | 1 | 2.0 | 3.0 | 0.00 | 0.00 | 0.00 | 99 | 1014.2 |
| 20260905105146 | 66 | 6 | 2.0 | 3.0 | 0.00 | 0.00 | 0.00 | 99 | 1013.8 |
| 20260905104641 | 66 | 8 | 2.0 | 3.0 | 0.00 | 0.00 | 0.00 | 99 | 1013.8 |
| 20260905104137 | 66 | 9 | 2.0 | 3.0 | 0.00 | 0.00 | 0.00 | 99 | 1013.8 |
| 20260905103632 | 66 | 16 | 1.0 | 3.0 | 0.00 | 0.00 | 0.00 | 99 | 1014.0 |
| 20260905103128 | 67 | 13 | 2.0 | 2.0 | 0.00 | 0.00 | 0.00 | 99 | 1013.7 |
| 20260905102623 | 67 | 6 | 1.0 | 3.0 | 0.00 | 0.00 | 0.00 | 99 | 1013.7 |
| 20260905102120 | 67 | 11 | 2.0 | 3.0 | 0.00 | 0.00 | 0.00 | 99 | 1013.6 |
| 20260905101618 | 67 | 22 | 1.0 | 3.0 | 0.00 | 0.00 | 0.00 | 99 | 1013.6 |
| 20260905101116 | 67 | 17 | 2.0 | 3.0 | 0.00 | 0.00 | 0.00 | 99 | 1013.6 |
| 20260905100613 | 67 | 7 | 2.0 | 3.0 | 0.00 | 0.00 | 0.00 | 99 | 1013.4 |
| 20260905100108 | 67 | 17 | 1.0 | 2.0 | 0.00 | 0.00 | 0.00 | 99 | 1013.3 |
| 20260905095601 | 67 | 11 | 1.0 | 3.0 | 0.00 | 0.00 | 0.00 | 99 | 1012.9 |
| 20260905095057 | 67 | 13 | 1.0 | 3.0 | 0.00 | 0.00 | 0.00 | 99 | 1013.2 |
| 20260905094551 | 67 | 358 | 3.0 | 3.0 | 0.00 | 0.00 | 0.00 | 99 | 1013.0 |
| 20260905094050 | 67 | 11 | 2.0 | 3.0 | 0.00 | 0.00 | 0.00 | 99 | 1013.0 |
| 20260905093545 | 67 | 8 | 2.0 | 3.0 | 0.00 | 0.00 | 0.00 | 99 | 1012.9 |
| 20260905093042 | 67 | 12 | 2.0 | 3.0 | 0.00 | 0.00 | 0.00 | 99 | 1013.0 |
| 20260905092541 | 67 | 14 | 2.0 | 3.0 | 0.00 | 0.00 | 0.00 | 99 | 1013.1 |
| 20260905092037 | 67 | 14 | 2.0 | 2.0 | 0.00 | 0.00 | 0.00 | 99 | 1013.2 |
| 20260905091531 | 67 | 1 | 2.0 | 3.0 | 0.00 | 0.00 | 0.00 | 99 | 1013.1 |
| 20260905091031 | 67 | 25 | 1.0 | 3.0 | 0.00 | 0.00 | 0.00 | 99 | 1013.1 |
| 20260905090525 | 67 | 18 | 0.0 | 2.0 | 0.00 | 0.00 | 0.00 | 99 | 1013.0 |
| 20260905090021 | 67 | 19 | 2.0 | 3.0 | 0.00 | 0.00 | 0.00 | 99 | 1012.9 |
| 20260905085519 | 67 | 38 | 2.0 | 3.0 | 0.00 | 0.00 | 0.00 | 99 | 1013.1 |
| 20260905085015 | 67 | 15 | 0.0 | 1.0 | 0.00 | 0.00 | 0.00 | 99 | 1013.1 |
| 20260905084515 | 67 | 75 | 0.0 | 1.0 | 0.00 | 0.00 | 0.00 | 99 | 1013.1 |
| 20260905084009 | 68 | 104 | 0.0 | 0.0 | 0.00 | 0.00 | 0.00 | 99 | 1012.9 |
| 20260905083504 | 68 | 242 | 0.0 | 1.0 | 0.00 | 0.00 | 0.00 | 99 | 1013.1 |
| 20260905083001 | 68 | 309 | 0.0 | 0.0 | 0.00 | 0.00 | 0.00 | 99 | 1013.2 |
| 20260905082456 | 68 | 22 | 0.0 | 2.0 | 0.00 | 0.00 | 0.00 | 99 | 1013.1 |
| 20260905081951 | 69 | 37 | 0.0 | 1.0 | 0.00 | 0.00 | 0.00 | 99 | 1013.2 |
| 20260905081446 | 68 | 317 | 1.0 | 2.0 | 0.00 | 0.00 | 0.00 | 99 | 1013.4 |
| 20260905080945 | 68 | 27 | 0.0 | 2.0 | 0.00 | 0.00 | 0.00 | 99 | 1013.1 |
| 20260905080440 | 68 | 0 | 2.0 | 2.0 | 0.00 | 0.00 | 0.00 | 99 | 1013.1 |
| 20260905075939 | 68 | 15 | 2.0 | 2.0 | 0.00 | 0.00 | 0.00 | 99 | 1013.0 |
| 20260905075434 | 68 | 11 | 1.0 | 3.0 | 0.00 | 0.00 | 0.00 | 99 | 1013.2 |
| 20260905074932 | 68 | 23 | 0.0 | 2.0 | 0.00 | 0.00 | 0.00 | 99 | 1013.0 |
| 20260905074428 | 68 | 36 | 1.0 | 3.0 | 0.00 | 0.00 | 0.00 | 99 | 1013.2 |
| 20260905073924 | 68 | 24 | 1.0 | 2.0 | 0.00 | 0.00 | 0.00 | 99 | 1013.3 |
| 20260905073418 | 68 | 351 | 0.0 | 1.0 | 0.00 | 0.00 | 0.00 | 99 | 1013.3 |
| 20260905072914 | 68 | 351 | 0.0 | 1.0 | 0.00 | 0.00 | 0.00 | 99 | 1013.1 |
| 20260905072409 | 68 | 345 | 0.0 | 1.0 | 0.00 | 0.00 | 0.00 | 99 | 1013.3 |
| 20260905071859 | 68 | 25 | 0.0 | 1.0 | 0.00 | 0.00 | 0.00 | 99 | 1013.5 |
| 20260905071356 | 68 | 29 | 0.0 | 1.0 | 0.00 | 0.00 | 0.00 | 99 | 1013.5 |
| 20260905070855 | 68 | 7 | 0.0 | 1.0 | 0.00 | 0.00 | 0.00 | 99 | 1013.7 |
| 20260905070351 | 68 | 50 | 0.0 | 1.0 | 0.00 | 0.00 | 0.00 | 99 | 1013.5 |
| 20260905065851 | 68 | 55 | 0.0 | 0.0 | 0.00 | 0.00 | 0.00 | 99 | 1013.6 |
| 20260905065348 | 69 | 7 | 0.0 | 1.0 | 0.00 | 0.00 | 0.00 | 99 | 1013.8 |
| 20260905064839 | 69 | 329 | 0.0 | 1.0 | 0.00 | 0.00 | 0.00 | 99 | 1013.8 |
| 20260905064334 | 69 | 37 | 0.0 | 0.0 | 0.00 | 0.00 | 0.00 | 99 | 1014.2 |
| 20260905063832 | 69 | 50 | 0.0 | 0.0 | 0.00 | 0.00 | 0.00 | 99 | 1014.3 |
| 20260905063329 | 69 | 185 | 0.0 | 2.0 | 0.00 | 0.00 | 0.00 | 99 | 1014.2 |
| 20260905062825 | 69 | 205 | 0.0 | 4.0 | 0.00 | 0.00 | 0.00 | 99 | 1014.3 |
| 20260905062319 | 69 | 253 | 2.0 | 4.0 | 0.00 | 0.00 | 0.00 | 99 | 1014.4 |
| 20260905061814 | 69 | 255 | 2.0 | 3.0 | 0.00 | 0.00 | 0.00 | 99 | 1014.3 |
| 20260905061314 | 70 | 217 | 0.0 | 1.0 | 0.00 | 0.00 | 0.00 | 99 | 1014.2 |
| 20260905060808 | 70 | 255 | 0.0 | 1.0 | 0.00 | 0.00 | 0.00 | 99 | 1014.3 |
| 20260905060305 | 70 | 242 | 0.0 | 1.0 | 0.00 | 0.00 | 0.00 | 99 | 1014.4 |
| 20260905055804 | 70 | 259 | 1.0 | 2.0 | 0.00 | 0.00 | 0.00 | 99 | 1014.5 |
| 20260905055259 | 70 | 172 | 0.0 | 2.0 | 0.00 | 0.00 | 0.00 | 99 | 1014.5 |
| 20260905054753 | 69 | 195 | 0.0 | 0.0 | 0.00 | 0.00 | 0.00 | 99 | 1014.6 |
| 20260905054250 | 69 | 304 | 0.0 | 1.0 | 0.00 | 0.00 | 0.00 | 99 | 1014.5 |
| 20260905053749 | 69 | 244 | 0.0 | 1.0 | 0.00 | 0.00 | 0.00 | 99 | 1014.9 |
| 20260905053244 | 69 | 224 | 0.0 | 2.0 | 0.00 | 0.00 | 0.00 | 99 | 1014.9 |
| 20260905052744 | 69 | 309 | 0.0 | 0.0 | 0.00 | 0.00 | 0.00 | 99 | 1014.7 |
| 20260905052239 | 69 | 269 | 0.0 | 0.0 | 0.00 | 0.00 | 0.00 | 99 | 1015.1 |
| 20260905051738 | 69 | 255 | 0.0 | 1.0 | 0.00 | 0.00 | 0.00 | 99 | 1014.9 |
| 20260905051235 | 69 | 251 | 2.0 | 2.0 | 0.00 | 0.00 | 0.00 | 99 | 1014.9 |
| 20260905050732 | 69 | 258 | 1.0 | 3.0 | 0.00 | 0.00 | 0.00 | 99 | 1014.8 |
| 20260905050228 | 69 | 229 | 0.0 | 1.0 | 0.00 | 0.00 | 0.00 | 99 | 1014.6 |
| 20260905045728 | 70 | 186 | 0.0 | 1.0 | 0.00 | 0.00 | 0.00 | 99 | 1014.8 |
| 20260905045223 | 70 | 230 | 0.0 | 1.0 | 0.00 | 0.00 | 0.00 | 99 | 1014.9 |
| 20260905044718 | 70 | 309 | 0.0 | 0.0 | 0.00 | 0.00 | 0.00 | 99 | 1014.7 |
| 20260905044213 | 70 | 255 | 0.0 | 2.0 | 0.00 | 0.00 | 0.00 | 99 | 1014.6 |
| 20260905043712 | 70 | 257 | 2.0 | 3.0 | 0.00 | 0.00 | 0.00 | 99 | 1014.7 |
| 20260905043207 | 70 | 247 | 2.0 | 3.0 | 0.00 | 0.00 | 0.00 | 99 | 1014.7 |
| 20260905042701 | 70 | 252 | 2.0 | 3.0 | 0.00 | 0.00 | 0.00 | 99 | 1014.7 |
| 20260905042201 | 70 | 247 | 0.0 | 3.0 | 0.00 | 0.00 | 0.00 | 99 | 1014.7 |
| 20260905041656 | 70 | 264 | 1.0 | 2.0 | 0.00 | 0.00 | 0.00 | 99 | 1014.5 |
| 20260905041151 | 71 | 269 | 0.0 | 2.0 | 0.00 | 0.00 | 0.00 | 99 | 1014.5 |
| 20260905040646 | 70 | 237 | 0.0 | 1.0 | 0.00 | 0.00 | 0.00 | 99 | 1014.5 |
| 20260905040145 | 71 | 269 | 0.0 | 2.0 | 0.00 | 0.00 | 0.00 | 99 | 1014.4 |
| 20260905035640 | 70 | 242 | 0.0 | 2.0 | 0.00 | 0.73 | 0.73 | 99 | 1014.5 |
| 20260905035137 | 70 | 236 | 0.0 | 2.0 | 0.00 | 0.73 | 0.73 | 99 | 1014.6 |
| 20260905034633 | 71 | 252 | 1.0 | 3.0 | 0.00 | 0.73 | 0.73 | 99 | 1014.7 |
| 20260905034132 | 71 | 254 | 2.0 | 2.0 | 0.00 | 0.73 | 0.73 | 99 | 1014.7 |
| 20260905033626 | 71 | 297 | 0.0 | 1.0 | 0.00 | 0.73 | 0.73 | 99 | 1014.5 |
| 20260905033122 | 71 | 246 | 1.0 | 3.0 | 0.00 | 0.73 | 0.73 | 99 | 1014.6 |
| 20260905032621 | 71 | 304 | 0.0 | 3.0 | 0.00 | 0.73 | 0.73 | 99 | 1014.7 |
| 20260905032121 | 71 | 252 | 1.0 | 3.0 | 0.00 | 0.73 | 0.73 | 98 | 1014.7 |
| 20260905031617 | 71 | 255 | 2.0 | 3.0 | 0.00 | 0.73 | 0.73 | 98 | 1014.7 |
| 20260905031112 | 71 | 253 | 2.0 | 3.0 | 0.00 | 0.73 | 0.73 | 98 | 1014.8 |
| 20260905030607 | 71 | 266 | 2.0 | 3.0 | 0.00 | 0.73 | 0.73 | 97 | 1014.6 |
| 20260905025557 | 71 | 252 | 2.0 | 2.0 | 0.00 | 0.73 | 0.73 | 97 | 1014.6 |
| 20260905025053 | 72 | 252 | 0.0 | 2.0 | 0.00 | 0.73 | 0.73 | 96 | 1014.4 |
| 20260905024548 | 72 | 258 | 2.0 | 3.0 | 0.00 | 0.73 | 0.73 | 96 | 1014.8 |
| 20260905024044 | 72 | 258 | 1.0 | 3.0 | 0.00 | 0.73 | 0.73 | 96 | 1014.7 |
| 20260905023539 | 72 | 260 | 2.0 | 2.0 | 0.00 | 0.73 | 0.73 | 95 | 1014.7 |
| 20260905023038 | 72 | 297 | 0.0 | 2.0 | 0.00 | 0.73 | 0.73 | 95 | 1014.9 |
| 20260905022532 | 72 | 269 | 0.0 | 2.0 | 0.00 | 0.73 | 0.73 | 95 | 1014.8 |
| 20260905022028 | 72 | 256 | 0.0 | 2.0 | 0.00 | 0.73 | 0.73 | 95 | 1014.7 |
| 20260905021528 | 72 | 332 | 1.0 | 2.0 | 0.00 | 0.73 | 0.73 | 94 | 1014.7 |
| 20260905021023 | 72 | 331 | 1.0 | 2.0 | 0.00 | 0.73 | 0.73 | 94 | 1014.7 |
| 20260905020522 | 72 | 335 | 2.0 | 3.0 | 0.00 | 0.73 | 0.73 | 95 | 1014.6 |
| 20260905020018 | 72 | 322 | 0.0 | 1.0 | 0.00 | 0.73 | 0.73 | 95 | 1014.7 |
| 20260905015515 | 72 | 278 | 1.0 | 2.0 | 0.00 | 0.73 | 0.73 | 94 | 1014.7 |
| 20260905015016 | 73 | 282 | 0.0 | 2.0 | 0.00 | 0.73 | 0.73 | 94 | 1014.9 |
| 20260905014511 | 72 | 331 | 2.0 | 2.0 | 0.00 | 0.73 | 0.73 | 94 | 1014.7 |
| 20260905014006 | 71 | 338 | 2.0 | 2.0 | 0.00 | 0.73 | 0.73 | 96 | 1014.8 |
| 20260905013502 | 71 | 279 | 0.0 | 1.0 | 0.00 | 0.73 | 0.73 | 96 | 1014.7 |
| 20260905012957 | 72 | 242 | 0.0 | 2.0 | 0.00 | 0.73 | 0.73 | 96 | 1014.6 |
| 20260905012451 | 72 | 312 | 1.0 | 2.0 | 0.00 | 0.73 | 0.73 | 96 | 1014.6 |
| 20260905011943 | 72 | 337 | 0.0 | 2.0 | 0.00 | 0.73 | 0.73 | 96 | 1014.7 |
| 20260905011439 | 72 | 269 | 0.0 | 0.0 | 0.00 | 0.73 | 0.73 | 96 | 1014.6 |
| 20260905010934 | 72 | 89 | 0.0 | 0.0 | 0.00 | 0.73 | 0.73 | 95 | 1014.4 |
| 20260905010429 | 72 | 89 | 0.0 | 0.0 | 0.00 | 0.73 | 0.73 | 94 | 1014.3 |
| 20260905005925 | 73 | 89 | 0.0 | 1.0 | 0.00 | 0.73 | 0.73 | 94 | 1014.4 |
| 20260905005421 | 73 | 351 | 0.0 | 0.0 | 0.00 | 0.73 | 0.73 | 93 | 1014.5 |
| 20260905004920 | 73 | 329 | 1.0 | 2.0 | 0.00 | 0.73 | 0.73 | 93 | 1014.5 |
| 20260905004416 | 73 | 269 | 0.0 | 0.0 | 0.00 | 0.73 | 0.73 | 93 | 1014.4 |
| 20260905003911 | 73 | 297 | 0.0 | 1.0 | 0.00 | 0.73 | 0.73 | 92 | 1014.5 |
| 20260905003406 | 74 | 258 | 0.0 | 2.0 | 0.00 | 0.73 | 0.73 | 91 | 1014.6 |
| 20260905002902 | 74 | 328 | 2.0 | 2.0 | 0.00 | 0.73 | 0.73 | 90 | 1014.4 |
| 20260905002355 | 74 | 354 | 0.0 | 3.0 | 0.00 | 0.73 | 0.73 | 90 | 1014.4 |
| 20260905001845 | 74 | 344 | 2.0 | 3.0 | 0.00 | 0.73 | 0.73 | 90 | 1014.6 |
| 20260905001344 | 74 | 340 | 2.0 | 3.0 | 0.00 | 0.73 | 0.73 | 90 | 1014.6 |
| 20260905000839 | 74 | 346 | 1.0 | 3.0 | 0.00 | 0.73 | 0.73 | 90 | 1014.6 |
| 20260905000335 | 75 | 347 | 0.0 | 3.0 | 0.00 | 0.73 | 0.73 | 90 | 1014.6 |
| 20260904235831 | 75 | 347 | 1.0 | 3.0 | 0.00 | 0.73 | 0.73 | 90 | 1014.5 |
| 20260904235326 | 75 | 340 | 2.0 | 3.0 | 0.00 | 0.73 | 0.73 | 89 | 1014.6 |
| 20260904234821 | 75 | 332 | 2.0 | 3.0 | 0.00 | 0.73 | 0.73 | 89 | 1014.6 |
| 20260904234321 | 75 | 340 | 2.0 | 3.0 | 0.00 | 0.73 | 0.73 | 90 | 1014.5 |
| 20260904233817 | 75 | 331 | 2.0 | 3.0 | 0.00 | 0.73 | 0.73 | 90 | 1014.5 |
| 20260904233312 | 75 | 338 | 2.0 | 3.0 | 0.00 | 0.73 | 0.73 | 89 | 1014.6 |
| 20260904232809 | 75 | 344 | 0.0 | 2.0 | 0.00 | 0.73 | 0.73 | 89 | 1014.5 |
| 20260904232307 | 75 | 7 | 0.0 | 0.0 | 0.00 | 0.73 | 0.73 | 88 | 1014.4 |
| 20260904231801 | 76 | 322 | 0.0 | 1.0 | 0.00 | 0.73 | 0.73 | 88 | 1014.4 |
| 20260904231255 | 76 | 322 | 0.0 | 1.0 | 0.00 | 0.73 | 0.73 | 87 | 1014.4 |
| 20260904230750 | 76 | 299 | 0.0 | 1.0 | 0.00 | 0.73 | 0.73 | 86 | 1014.4 |
| 20260904230244 | 76 | 284 | 0.0 | 2.0 | 0.00 | 0.73 | 0.73 | 86 | 1014.4 |
| 20260904225744 | 76 | 306 | 0.0 | 2.0 | 0.00 | 0.73 | 0.73 | 86 | 1014.3 |
| 20260904225238 | 76 | 217 | 0.0 | 0.0 | 0.00 | 0.73 | 0.73 | 86 | 1014.0 |
| 20260904224737 | 76 | 333 | 0.0 | 3.0 | 0.00 | 0.73 | 0.73 | 85 | 1014.3 |
| 20260904224233 | 77 | 259 | 3.0 | 3.0 | 0.00 | 0.73 | 0.73 | 84 | 1014.3 |
| 20260904223732 | 77 | 273 | 2.0 | 2.0 | 0.00 | 0.73 | 0.73 | 84 | 1014.3 |
| 20260904223227 | 77 | 278 | 2.0 | 4.0 | 0.00 | 0.73 | 0.73 | 84 | 1014.3 |
| 20260904222723 | 77 | 286 | 0.0 | 2.0 | 0.00 | 0.73 | 0.73 | 83 | 1014.3 |
| 20260904222218 | 78 | 284 | 1.0 | 5.0 | 0.00 | 0.73 | 0.73 | 83 | 1014.2 |
| 20260904221718 | 78 | 322 | 0.0 | 4.0 | 0.00 | 0.73 | 0.73 | 82 | 1014.0 |
| 20260904221213 | 79 | 315 | 0.0 | 3.0 | 0.00 | 0.73 | 0.73 | 79 | 1014.2 |
| 20260904220707 | 79 | 255 | 0.0 | 3.0 | 0.00 | 0.73 | 0.73 | 79 | 1013.9 |
| 20260904220202 | 79 | 262 | 1.0 | 3.0 | 0.00 | 0.73 | 0.73 | 78 | 1014.0 |
| 20260904215656 | 80 | 247 | 0.0 | 2.0 | 0.00 | 0.73 | 0.73 | 76 | 1013.9 |
| 20260904215153 | 80 | 284 | 0.0 | 3.0 | 0.00 | 0.73 | 0.73 | 76 | 1013.8 |
| 20260904214652 | 79 | 322 | 0.0 | 3.0 | 0.00 | 0.73 | 0.73 | 76 | 1013.9 |
| 20260904214148 | 80 | 281 | 0.0 | 2.0 | 0.00 | 0.73 | 0.73 | 78 | 1013.9 |
| 20260904213646 | 79 | 222 | 2.0 | 3.0 | 0.00 | 0.73 | 0.73 | 76 | 1014.0 |
| 20260904213143 | 80 | 321 | 0.0 | 3.0 | 0.00 | 0.73 | 0.73 | 78 | 1013.8 |
| 20260904212638 | 79 | 243 | 3.0 | 3.0 | 0.00 | 0.73 | 0.73 | 77 | 1013.9 |
| 20260904212133 | 79 | 255 | 0.0 | 5.0 | 0.00 | 0.73 | 0.73 | 78 | 1013.9 |
| 20260904211632 | 80 | 261 | 2.0 | 6.0 | 0.00 | 0.73 | 0.73 | 76 | 1013.8 |
| 20260904211127 | 80 | 247 | 2.0 | 5.0 | 0.00 | 0.73 | 0.73 | 75 | 1013.9 |
| 20260904210622 | 81 | 250 | 3.0 | 4.0 | 0.00 | 0.73 | 0.73 | 77 | 1013.8 |
| 20260904210118 | 81 | 259 | 2.0 | 3.0 | 0.00 | 0.73 | 0.73 | 76 | 1013.9 |
| 20260904205613 | 79 | 338 | 1.0 | 2.0 | 0.00 | 0.73 | 0.73 | 79 | 1014.2 |
| 20260904205109 | 79 | 315 | 0.0 | 2.0 | 0.00 | 0.73 | 0.73 | 79 | 1014.3 |
| 20260904204605 | 80 | 324 | 1.0 | 2.0 | 0.00 | 0.73 | 0.73 | 80 | 1014.0 |
| 20260904204101 | 79 | 262 | 3.0 | 4.0 | 0.00 | 0.73 | 0.73 | 79 | 1014.4 |
| 20260904203556 | 79 | 275 | 2.0 | 3.0 | 0.00 | 0.73 | 0.73 | 81 | 1014.5 |
| 20260904203053 | 79 | 113 | 0.0 | 0.0 | 0.00 | 0.73 | 0.73 | 83 | 1014.4 |
| 20260904202548 | 79 | 332 | 0.0 | 1.0 | 0.00 | 0.73 | 0.73 | 82 | 1014.7 |
| 20260904202044 | 79 | 330 | 1.0 | 2.0 | 0.00 | 0.73 | 0.73 | 82 | 1014.8 |
| 20260904201539 | 79 | 246 | 2.0 | 3.0 | 0.00 | 0.73 | 0.73 | 84 | 1014.6 |
| 20260904201034 | 77 | 322 | 0.0 | 2.0 | 0.00 | 0.73 | 0.73 | 84 | 1014.7 |
| 20260904200533 | 77 | 327 | 1.0 | 2.0 | 0.00 | 0.73 | 0.73 | 84 | 1014.8 |
| 20260904200029 | 78 | 228 | 0.0 | 2.0 | 0.00 | 0.73 | 0.73 | 82 | 1014.3 |
| 20260904195527 | 78 | 220 | 1.0 | 4.0 | 0.00 | 0.73 | 0.73 | 81 | 1014.6 |
| 20260904195026 | 78 | 255 | 0.0 | 2.0 | 0.00 | 0.73 | 0.73 | 83 | 1014.2 |
| 20260904194521 | 78 | 15 | 0.0 | 1.0 | 0.00 | 0.73 | 0.73 | 83 | 1014.0 |
| 20260904194016 | 77 | 351 | 0.0 | 1.0 | 0.00 | 0.73 | 0.73 | 84 | 1014.5 |
| 20260904193511 | 77 | 283 | 0.0 | 2.0 | 0.00 | 0.73 | 0.73 | 85 | 1014.8 |
| 20260904193007 | 78 | 336 | 2.0 | 4.0 | 0.00 | 0.73 | 0.73 | 84 | 1015.1 |
| 20260904192506 | 77 | 230 | 2.0 | 4.0 | 0.00 | 0.73 | 0.73 | 84 | 1015.5 |
| 20260904191957 | 77 | 340 | 5.0 | 7.0 | 0.00 | 0.73 | 0.73 | 85 | 1015.5 |
| 20260904191453 | 77 | 304 | 2.0 | 5.0 | 0.00 | 0.73 | 0.73 | 85 | 1016.0 |
| 20260904190950 | 78 | 300 | 2.0 | 3.0 | 0.00 | 0.73 | 0.73 | 86 | 1016.2 |
| 20260904190445 | 77 | 258 | 1.0 | 3.0 | 0.00 | 0.73 | 0.73 | 87 | 1015.9 |
| 20260904185941 | 76 | 340 | 2.0 | 4.0 | 0.00 | 0.73 | 0.73 | 88 | 1015.8 |